Home   Weather   Canterbury   Past weeks

Flag for United Kingdom Past Weather in Canterbury, England, United Kingdom — Yesterday and Last 2 Weeks

Now
73 °F

Mild.


Feels Like: 77 °F
Forecast: 58 / 73 °F
Wind: 8 mph from Northwest

Location: Manston

Current Time: Aug 31, 2016 at 5:20:05 PM

Latest Report: Aug 31, 2016 at 4:00 PM


Visibility: 13 mi

Pressure: 30.12 "Hg

Humidity: 58%

Dew Point: 57 °F

Location of CanterburyLocation

Past Weather in Canterbury — Graph

°F

Canterbury Temperature Yesterday

Maximum temperature yesterday: 74 °F (at 1:00 PM)
Minimum temperature yesterday: 56 °F (at 6:00 AM)
Average temperature yesterday: 62 °F

High & Low Weather Summary for the Past Weeks

 TemperatureHumidityPressure
High87 °F (Aug 24, 2:00 PM)100% (Aug 19, 4:00 AM)30.31 "Hg (Aug 19, 4:00 AM)
Low56 °F (Aug 30, 6:00 AM)43% (Aug 24, 2:00 PM)29.72 "Hg (Aug 19, 4:00 PM)
Average66 °F79%30.01 "Hg
* Reported Aug 16 5:00 PM — Aug 31 4:00 PM, Canterbury, Weather by CustomWeather, © 2016

Note: Actual official high and low records may vary slightly from our data, if they occured in-between our weather recording intervals... More about our weather records

Advertising

Canterbury Weather History for the Previous 24 Hours

Scroll right to see more
 ConditionsComfort  
Time TempWeatherWind HumidityBarometerVisibility
4:00 PM
Wed, Aug 31
73 °FMild.8 mph58%30.12 "Hg13 mi
3:00 PM74 °FMild.8 mph56%30.11 "Hg16 mi
2:00 PM73 °FMild.8 mph59%30.11 "Hg7 mi
12:00 PM73 °FMild.5 mph59%30.13 "Hg16 mi
11:00 AM71 °FMild.8 mph54%30.13 "Hg19 mi
10:00 AM70 °FMild.7 mph58%30.13 "Hg22 mi
9:00 AM66 °FSmoke.6 mph75%30.13 "Hg8 mi
8:00 AM63 °FSmoke.7 mph88%30.13 "Hg5 mi
7:00 AM58 °FFog.6 mph95%30.13 "Hg4 mi
6:00 AM57 °FFog.6 mph95%30.13 "Hg2 mi
5:00 AM59 °FFog.6 mph94%30.12 "Hg2 mi
4:00 AM59 °FFog.6 mph95%30.14 "Hg2 mi
3:00 AM60 °FFog.6 mph96%30.15 "Hg2 mi
2:00 AM62 °FCool.9 mph92%30.16 "Hg8 mi
1:00 AM62 °FCool.9 mph84%30.17 "Hg25 mi
12:00 AM61 °FCool.6 mph86%30.19 "Hg22 mi
11:00 PM
Tue, Aug 30
61 °FCool.7 mph85%30.21 "Hg16 mi
10:00 PM62 °FCool.6 mph86%30.21 "Hg16 mi
9:00 PM63 °FMild.8 mph83%30.22 "Hg17 mi
8:00 PM65 °FMild.9 mph77%30.22 "Hg19 mi
Weather by CustomWeather, © 2016

See weather overviewHow to use our weather pages